Regional Weather Roundup
Issued by NWS

Home | Current Version | Previous Version | Text Only | Print | Product List | Glossary Off
Versions: 1 2 3 4 5 6 7 8 9 10 11 12 13 14 15 16 17 18 19 20 21 22 23 24 25 26 27 28 29 30 31 32 33 34 35 36 37 38 39 40 41 42 43 44 45 46 47 48 49 50

000
ASUS43 KFSD 010010
RWRSD

WEATHER ROUNDUP FOR SOUTH DAKOTA
NATIONAL WEATHER SERVICE SIOUX FALLS SD
700 PM CDT SAT APR 30 2016

NOTE: "FAIR" INDICATES FEW OR NO CLOUDS BELOW 12,000 FEET WITH NO
SIGNIFICANT WEATHER AND/OR OBSTRUCTIONS TO VISIBILITY.


SDZ001>005-009-010-012>017-010100-
NORTHWEST AND NORTH CENTRAL SOUTH DAKOTA

CITY           SKY/WX    TMP DP  RH WIND       PRES   REMARKS
BUFFALO          N/A     56  29  35 NE23G29   30.13R
FAITH            N/A     54  28  36 NE24G33   30.13R
MOBRIDGE       PTSUNNY   58  30  34 NE18G24   30.11R
$$

SDZ012>016-024>037-041>051-057-063-072>074-010100-
SOUTHWEST AND SOUTH CENTRAL SOUTH DAKOTA

CITY           SKY/WX    TMP DP  RH WIND       PRES   REMARKS
RAPID CTY ARPT CLOUDY    50  31  48 NE20G29   30.12R
PIERRE         CLOUDY    53  36  52 NE20      30.06R
CUSTER         CLOUDY    38  28  67 N15G26    30.10R
ELLSWORTH AFB  CLOUDY    51  31  46 N18       30.12R
PHILIP         CLOUDY    51  35  54 NE20G28   30.09R
PINE RIDGE     LGT RAIN  44  30  57 NE18G37   30.07R
WINNER         LGT RAIN  43  38  82 NE23G37   30.03R
$$

SDZ004>011-016>023-039-040-010100-
NORTHEAST SOUTH DAKOTA

CITY           SKY/WX    TMP DP  RH WIND       PRES   REMARKS
ABERDEEN       PTSUNNY   58  31  35 NE17G26   30.10R
WATERTOWN      CLOUDY    53  36  52 NE13G23   30.05R
BROOKINGS      LGT RAIN  48  38  68 E17G30    30.03R
SISSETON         N/A     59  31  34 E18       30.08R
$$

SDZ017-020-022-023-036>040-048>070-010100-
SOUTHEAST SOUTH DAKOTA

CITY           SKY/WX    TMP DP  RH WIND       PRES   REMARKS
SIOUX FALLS    LGT RAIN  44  40  85 NE18G26   29.99R
HURON          CLOUDY    51  37  58 NE12      30.05R
CHAMBERLAIN    LGT RAIN  46  43  91 NE16      30.05R
MITCHELL       LGT RAIN  45  43  93 NE12      30.04R
YANKTON        CLOUDY    45  41  87 NE21      29.93R
$$

ABBREVIATIONS USED IN REMARKS
   TC - TEMPERATURE IN CELSIUS
  WCI - WIND CHILL INDEX
   HX - HEAT INDEX
  VSB - VISIBILITY




USA.gov is the U.S. government's official web portal to all federal, state and local government web resources and services.